Location: Buchberg
(46.9333°N, 15.8500°E)
Time: 02:16:02
(UTC+00:00)

ERS-2 - Visible Passes

Search period start: 23 October 2020 00:00
Search period end: 02 November 2020 00:00
Orbit: 492 x 499 km, 98.6° (Epoch: 22 October)

Date Brightness Start Highest point End Pass type
(mag) Time Alt. Az. Time Alt. Az. Time Alt. Az.
23 Oct 2.2 03:13:02 10° SSE 03:16:39 72° ENE 03:17:25 52° N visible
23 Oct 5.2 17:46:49 10° NNW 17:48:59 15° WNW 17:51:08 10° W visible
24 Oct 3.4 02:52:21 10° SE 02:55:46 39° ENE 02:55:52 39° ENE visible
24 Oct 3.7 04:27:09 10° SW 04:29:30 16° W 04:30:27 15° WNW visible
24 Oct 4.5 17:25:12 10° N 17:28:13 24° WNW 17:31:12 10° WSW visible
25 Oct 4.5 02:32:00 10° ESE 02:34:23 22° E 02:34:23 22° E visible
25 Oct 3.0 04:05:14 10° SSW 04:08:23 27° W 04:08:57 26° W visible
25 Oct 3.5 17:03:55 10° N 17:07:23 41° WNW 17:10:49 10° SW visible
26 Oct 5.3 02:12:08 10° E 02:12:56 13° E 02:12:56 13° E visible
26 Oct 2.2 03:43:48 10° S 03:47:20 49° WSW 03:47:30 49° W visible
26 Oct 2.3 16:42:48 10° NNE 16:46:28 77° WNW 16:50:06 10° SSW visible
27 Oct 2.1 03:22:42 10° SSE 03:26:05 76° SSE 03:26:05 76° SSE visible
27 Oct 2.2 16:21:53 10° NNE 16:25:30 58° ESE 16:29:05 10° S visible
27 Oct 5.3 17:56:53 10° NNW 17:58:36 13° WNW 18:00:18 10° W visible
28 Oct 3.3 03:01:56 10° SE 03:04:42 41° ESE 03:04:42 41° ESE visible
28 Oct 3.9 04:37:23 10° WSW 04:39:15 13° W 04:39:16 13° W visible
28 Oct 4.7 17:35:03 10° NNW 17:37:51 21° WNW 17:40:36 10° WSW visible
29 Oct 4.4 02:41:27 10° SE 02:43:19 22° E 02:43:19 22° E visible
29 Oct 3.3 04:15:10 10° SSW 04:17:54 23° WSW 04:17:54 23° WSW visible
29 Oct 3.8 17:13:40 10° N 17:17:01 34° WNW 17:20:20 10° SW visible
30 Oct 5.3 02:21:22 10° ESE 02:21:58 12° E 02:21:58 12° E visible
30 Oct 2.6 03:53:35 10° S 03:56:32 38° WSW 03:56:32 38° WSW visible
30 Oct 2.6 16:52:30 10° N 16:56:07 62° WNW 16:59:43 10° SSW visible
31 Oct 2.5 03:32:24 10° S 03:35:11 51° S 03:35:11 51° S visible
31 Oct 2.0 16:31:31 10° NNE 16:35:10 71° ESE 16:38:48 10° S visible
31 Oct 5.4 18:07:08 10° NW 18:08:10 11° WNW 18:09:13 10° WNW visible
01 Nov 3.4 03:11:29 10° SSE 03:13:51 36° SE 03:13:51 36° SE visible
01 Nov 4.2 04:47:52 10° WSW 04:48:25 11° W 04:48:25 11° W visible
01 Nov 2.6 16:10:42 10° NNE 16:14:09 38° E 16:17:34 10° S visible
01 Nov 5.0 17:44:54 10° NNW 17:47:25 18° WNW 17:49:56 10° WSW visible
